Regional Weather Roundup
Issued by NWS

Home | Current Version | Previous Version | Text Only | Print | Product List | Glossary Off
Versions: 1 2 3 4 5 6 7 8 9 10 11 12 13 14 15 16 17 18 19 20 21 22 23 24 25 26 27 28 29 30 31 32 33 34 35 36 37 38 39 40 41 42 43 44 45 46 47 48 49 50

518
ASUS45 KTFX 192010
RWRMT
MONTANA REGIONAL WEATHER ROUNDUP
NATIONAL WEATHER SERVICE GREAT FALLS MT
100 PM MST FRI JAN 19 2018

NOTE: "FAIR" INDICATES FEW OR NO CLOUDS BELOW 12000 FEET WITH NO
SIGNIFICANT WEATHER AND/OR OBSTRUCTIONS TO VISIBILITY.

MTZ001>007-043-192100-
WEST OF THE DIVIDE

CITY           SKY/WX    TMP DP  RH WIND       PRES   REMARKS
KALISPELL      CLOUDY    38  27  64 W3        29.78S
MISSOULA       CLOUDY    33  32  96 S5        29.85S
BUTTE          CLOUDY    29  22  75 NW9       29.76R WCI  20
MULLAN PASS    LGT SNOW  23  22  96 VRB3      29.76S FOG
ANACONDA         N/A     30  27  86 CALM      29.78R
DEER LODGE       N/A     30  28  93 NW3       29.81R
EUREKA           N/A     37  23  56 MISG      29.78S
HAMILTON         N/A     36  25  64 CALM      29.84S
RONAN            N/A     37  23  56 S8G23     29.84S WCI  31
$$

MTZ008-052>055-192100-
SOUTHWEST MONTANA

CITY           SKY/WX    TMP DP  RH WIND       PRES   REMARKS
BOZEMAN        SNOW      33  31  92 CALM      29.74F VSB 1/2
DILLON         SNOW      25  32 100 NW5       29.74S VSB 1/2
ENNIS          LGT SNOW  32  30  93 NW10      29.78R WCI  24
W YELLOWSTONE  LGT SNOW  30  28  93 SW8       29.72F VSB 3/4 WCI  23
THREE FORKS      N/A     35  34  96 CALM      29.77S
$$

MTZ009-010-012-014-046-048-049-054-192100-
EAST SLOPES AND CENTRAL MONTANA

CITY           SKY/WX    TMP DP  RH WIND       PRES   REMARKS
CUT BANK       FAIR      37  20  50 W35G47    29.60F WCI  24
GREAT FALLS    FAIR      39  24  55 W15       29.68S WCI  31
MALMSTROM AFB  FAIR      40  28  62 W8        29.69R
HELENA         FAIR      38  26  62 W9        29.75R WCI  31
AUGUSTA        FAIR      35  20  54 W26       29.67F WCI  22
BOWMANS CRNR   FAIR      34  20  58 SW8       29.68S WCI  27
CHOTEAU          N/A     39  18  41 W22G30    29.67R WCI  29
FAIRFIELD      FAIR      38  21  49 W26G32    29.65S WCI  27
POWER          FAIR      35  21  58 W8        29.66S WCI  28
RAYNESFORD     PTSUNNY   40  25  54 W9        29.67F
ULM            PTSUNNY   38  27  64 SW17      29.68F WCI  28
WHITE SULPHUR    N/A     32  27  80 CALM      29.70R
$$

MTZ011-013-016-021-045-047-050-051-192100-
NORTH CENTRAL MONTANA

CITY           SKY/WX    TMP DP  RH WIND       PRES   REMARKS
HAVRE          FAIR      34  31  88 SW12      29.66S WCI  25
LEWISTOWN      FAIR      35  29  78 W10       29.67S WCI  27
N BAR RANCH    FAIR      36  32  87 CALM      29.68F
CHINOOK          N/A     41  27  56 W15       29.64F
DENTON         PTSUNNY   35  32  89 MISG      29.65S
GEYSER         FAIR      38  28  68 W18       29.66S WCI  28
GRASS RANGE    FAIR      37  33  86 CALM      29.63F
STANFORD       PTSUNNY   37  28  69 NW12      29.66S WCI  29
$$

MTZ017>020-022>027-061-062-192100-
NORTHEAST MONTANA

CITY           SKY/WX    TMP DP  RH WIND       PRES   REMARKS
GLASGOW        FAIR      36  29  75 W6        29.64S WCI  31
GLENDIVE       FAIR      37  33  85 W12       29.67R WCI  29
JORDAN           N/A     37  33  85 W9        29.66S WCI  30
MALTA          SUNNY     34  28  80 SW6       29.64F WCI  29
SIDNEY         FAIR      40  30  67 S7        29.64S
WOLF POINT     FAIR      40  30  67 SW3       29.65S
PLENTYWOOD       N/A     36  25  64 W16       29.58F WCI  26
POPLAR           N/A     36  28  75 W9        29.64F WCI  29
$$

MTZ028>42-056>058-192100-
SOUTHCENTRAL AND SOUTHEAST MONTANA

CITY           SKY/WX    TMP DP  RH WIND       PRES   REMARKS
BAKER          FAIR      36  34  92 W13       29.68S WCI  27
BILLINGS       CLOUDY    38  36  92 SW9       29.69R WCI  31
LIVINGSTON     HVY SNOW  33  33 100 NW7       29.70S VSB 1/4 WCI  27
MILES CITY     CLOUDY    37  34  89 S10       29.69S WCI  30
BIG TIMBER     FOG       32  32 100 SW5       29.72S VSB 3/4
FORSYTH          N/A     37  37 100 W6        29.68F
HARLOWTON      CLOUDY    35  29  79 W7        29.69R WCI  30
LAUREL           N/A     37  36  93 SW7       29.71R
$$

REGIONAL REPORTS...DAKOTAS

CITY           SKY/WX    TMP DP  RH WIND       PRES   REMARKS
WILLISTON      SUNNY     39  23  52 W14       29.60F WCI  31
MINOT          FAIR      42  29  59 W8        29.55R
DICKINSON      FAIR      39  31  72 W16       29.60F WCI  30
BEACH          FAIR      37  34  87 W14G20    29.69R WCI  29
CROSBY         FAIR      36  27  69 W12       29.57F WCI  27
TIOGA          FAIR      36  32  87 W13       29.59S WCI  27
WATFORD CITY   FAIR      39  30  70 W12       29.62S WCI  32
BISMARCK       CLOUDY    43  32  65 W12       29.62R
GRAND FORKS    PTSUNNY   39  32  76 NW8       29.48R
FARGO          FAIR      40  32  73 W7        29.51R
BUFFALO SD       N/A     38  32  79 W9        29.62R WCI  31
RAPID CITY     FAIR      43  31  62 N12       29.68F
$$

REGIONAL REPORTS...WYOMING/IDAHO/WASHINGTON

CITY           SKY/WX    TMP DP  RH WIND       PRES   REMARKS
GILLETTE       FAIR      43  32  65 VRB5      29.70F
SHERIDAN       CLOUDY    40  36  86 CALM      29.68F
BUFFALO WY     FAIR      40  32  73 SE8       29.68F
CODY           CLOUDY    37  33  85 CALM      29.69S
YELLOWSTONE LA   N/A     27  25  92 VRB6      29.73F WCI  20
IDAHO FALLS    CLOUDY    35  35 100 SW18G26   29.82F WCI  24
SALMON         CLOUDY    37  34  87 CALM      29.82F
BOISE          PTSUNNY   43  32  65 W12G18    29.96S
SPOKANE        FAIR      37  32  82 S14       29.88F WCI  28
$$

REGIONAL REPORTS...ALBERTA

CITY           SKY/WX    TMP DP  RH WIND       PRES   REMARKS
CALGARY        MOSUNNY   39  12  33 W14G22    29.54S WCI  31
CARDSTON         N/A     37  18  44 W17G25      N/A  WCI  28
EDMONTON       MOSUNNY   37  21  52 W8        29.48S WCI  31
FORT MCMURRAY  FLURRIES  23  21  93 NW9       29.41R WCI  13
HIGH LEVEL     PTSUNNY   18  14  86 N14G23    29.53R WCI   4
LETHBRIDGE     MOSUNNY   39  23  52 W29       29.60S WCI  28
LLOYDMINSTER   MOSUNNY   36  23  60 W15       29.44R WCI  26
MEDICINE HAT   MOSUNNY   37  28  70 W13       29.58F WCI  29
MILK RIVER       N/A     37  25  60 W22G28      N/A  WCI  27
PEACE RIVER    MOSUNNY   28  16  59 N6        29.49S WCI  22
PINCHER CREEK  SUNNY     34  25  69 W25G31    29.61F WCI  21
WATERTON GATE    N/A     34  18  51 SW30G45     N/A  WCI  20
$$

REGIONAL REPORTS...SASKATCHEWAN

CITY           SKY/WX    TMP DP  RH WIND       PRES   REMARKS
CORONACH         N/A     36  25  64 W8          N/A  WCI  29
CYPRESS HILLS    N/A     32  18  55 SW9         N/A  WCI  24
ESTEVAN        PTSUNNY   36  27  69 SW10      29.55S WCI  28
MOOSE JAW        N/A     45  23  42 W17         N/A
PRINCE ALBERT  PTSUNNY   37  30  75 NW15G22   29.41R WCI  28
REGINA         MOSUNNY   37  28  70 W12       29.50F WCI  30
ROCKGLEN         N/A     32  21  64 W18         N/A  WCI  20
SASKATOON      PTSUNNY   34  25  69 W10       29.48R WCI  26
SWIFT CURRENT  SUNNY     37  23  56 W18       29.53S WCI  27
VAL MARIE        N/A     34  23  64 W12         N/A  WCI  25
$$




USA.gov is the U.S. government's official web portal to all federal, state and local government web resources and services.